User: anonymous   Login
Location: Newark
(14.6333°N, 90.5000°W)
Time: 21:09:24
(UTC+00:00)
Language:

DX 1 - Orbit

View from above orbital plane
View from above orbital plane
View from above satellite
View from above satellite

Ground track
Ground track

The orbit data is extracted from the following two-line orbital elements,

1 40071U 14037C   20023.48098814  .00000062  00000-0  15447-4 0  9999
2 40071  98.4463 193.8878 0007278 241.3717 118.6771 14.81327133299645
Epoch (UTC): 23 January 2020 11:32:37
Eccentricity: 0.0007278
inclination: 98.4463°
perigee height: 620 km
apogee height: 630 km
right ascension of ascending node: 193.8878°
argument of perigee: 241.3717°
revolutions per day: 14.81327133
mean anomaly at epoch: 118.6771°
orbit number at epoch: 29964

The dashed part of the orbit path shows where the satellite is in the earth's shadow,  

DLR